Preview of NWS' New Version of Forecast
This preview is not operational and should not be used for support decisions.

Regional Weather Roundup (RWR)

Issued by National Weather Service (NWS)

                            
000
ASUS46 KSEW 230720
RWRWA 

WASHINGTON REGIONAL WEATHER ROUNDUP
NATIONAL WEATHER SERVICE SEATTLE WA
1200 AM PDT MON SEP 23 2019

NOTE:"FAIR" INDICATES FEW OR NO CLOUDS BELOW 12,000 FEET WITH NO 
SIGNIFICANT WEATHER AND/OR OBSTRUCTIONS TO VISIBILITY.

WAZ507-509-555>559-230800-
SEATTLE, TACOMA, EVERETT, AND VICINITY
  
CITY           SKY/WX    TMP DP  RH WIND       PRES   REMARKS
EVERETT        CLOUDY    58  55  90 CALM      30.02R                  
BOEING FIELD   CLOUDY    59  55  87 SE7       30.03R                  
RENTON         CLOUDY    59  54  83 S7        30.02R HAZE             
SEATAC AIRPORT LGT RAIN  58  54  86 S9        30.02R                  
JBLM-MCCHORD   CLOUDY    58  57  99 S10       30.03R                  
PUYALLUP       CLOUDY    59  55  88 VRB5      30.04R                  
BREMERTON      LGT RAIN  56  55  97 E3        30.01R                  
JBLM-FT LEWIS  CLOUDY    58  58 100 SE8       30.02R                  
TACOMA NARROWS CLOUDY    56  54  93 S8        30.02R                  
$$
 
WAZ001-503-506-510-514-515-230800-
NORTH INTERIOR
  
CITY           SKY/WX    TMP DP  RH WIND       PRES   REMARKS
BELLINGHAM     MOCLDY    59  54  83 CALM      29.97R                  
FRIDAY HARBOR  CLOUDY    53  53 100 CALM      29.98R FOG              
EASTSOUND      CLEAR     55  55 100 S5        29.98R                  
PORT ANGELES   PTCLDY    55  53  93 W6        30.00R                  
EDIZ HOOK      FAIR      57  55  91 W8        29.99R                  
PORT TOWNSEND  CLOUDY    57  55  94 CALM      30.00R                  
NAS WHIDBEY    MOCLDY    60  53  77 CALM      30.03R                  
ARLINGTON      CLOUDY    58  57  97 S7        30.00S                  
BURLINGTON     MOCLDY    57  55  94 CALM      29.99S                  
$$
 
WAZ020-022-039-040-504-511-512-230800-
SOUTHWEST INTERIOR
  
CITY           SKY/WX    TMP DP  RH WIND       PRES   REMARKS
SHELTON        CLOUDY    57  53  86 W10       29.99R                  
OLYMPIA        CLOUDY    57  52  83 SW6       30.03R                  
CHEHALIS       CLOUDY    59  55  88 S3        30.06R                  
KELSO          CLOUDY    60  56  86 CALM      30.08R                  
VANCOUVER      CLOUDY    58  55  90 CALM      30.08R                  
SCAPPOOSE, OR  CLOUDY    58  54  86 VRB3      30.07R                  
PORTLAND, OR   CLOUDY    60  55  83 SW3       30.08R                  
$$
 
WAZ021-516-517-230800-
WASHINGTON COAST
  
CITY           SKY/WX    TMP DP  RH WIND       PRES   REMARKS
FORKS          MOCLDY    53  52  96 CALM      30.03R                  
HOQUIAM        MOCLDY    59  54  83 NW8       30.06R                  
ASTORIA, OR    PTCLDY    57  50  77 W7        30.07R                  
$$
 
WAZ019-023-024-040-567>569-230800-
CASCADE MOUNTAINS AND COLUMBIA GORGE
  
CITY           SKY/WX    TMP DP  RH WIND       PRES   REMARKS
STAMPEDE PASS  FOG       45  44  97 VRB6G18   30.03R VSB 1/2          
TROUTDALE, OR  CLOUDY    60  56  86 SW5       30.08R                  
HOOD RIVER, OR CLOUDY    59  52  77 NW8       30.03R                  
THE DALLES, OR CLEAR     60  53  77 W10       29.99R                  
$$

WAZ026-027-041>044-520-521-230800-
EAST SLOPES
  
CITY           SKY/WX    TMP DP  RH WIND       PRES   REMARKS
OMAK           CLEAR     54  48  80 CALM      29.88R                  
WENATCHEE      CLEAR     57  52  83 W7        29.89R                  
ELLENSBURG     CLEAR     58  49  72 NW15      29.94R                  
YAKIMA         CLEAR     50  47  89 W3        29.94R                  
SUNNYSIDE ARPT SUNNY     52  51  97 CALM      29.94                   
YAKIMA TC      SUNNY     51  49  91 E3        29.93R                  
$$

WAZ028-034-035-230800-
COLUMBIA BASIN
  
CITY           SKY/WX    TMP DP  RH WIND       PRES   REMARKS
EPHRATA        CLEAR     52  49  89 SW6       29.88R                  
MOSES LAKE     CLEAR     57  50  77 S7        29.90R                  
PASCO          CLEAR     63  55  75 SW10      29.93R                  
RICHLAND ARPT  SUNNY     62  55  80 S3        29.93                   
HERMISTON, OR  CLOUDY    62  53  72 S8        29.95R                  
$$

WAZ036>038-230800-
NORTHEAST WASHINGTON
  
CITY           SKY/WX    TMP DP  RH WIND       PRES   REMARKS
SPOKANE GEIGER PTCLDY    56  49  77 S14       29.93R                  
SPOKANE FELTS  CLOUDY    59  52  77 SW8       29.93R                  
FAIRCHILD AFB  MOCLDY    54  54 100 S12       29.93R                  
COEURDALENE,ID CLOUDY    57  53  86 S9        29.94R                  
DEER PARK      CLOUDY    59  48  67 SW10      29.93R                  
$$

WAZ029>033-230800-
SOUTHEAST WASHINGTON
  
CITY           SKY/WX    TMP DP  RH WIND       PRES   REMARKS
PULLMAN        PTCLDY    54  51  90 CALM      29.98S                  
LEWISTON, ID   MOCLDY    60  55  83 E3        29.95R                  
WALLA WALLA    PTCLDY    59  53  80 S7        29.97R                  
PENDLETON, OR  MOCLDY    56  53  90 SE7       29.98R                  
$$